This demonstration page uses our WeatherBlox Daily Observations layout. Learn more.

Left ArrowRight Arrow

Hourly Observations for December 29, 2016

Temp ( °F °C ) Dew Point ( °F °C ) Humidity (%) Winds ( mph kmh ) Pressure ( in mb ) Visibility ( mi km ) Precip ( " mm )
12:53 am 00:53 Clear 18 -7.8 12 -11.1 77 77 SE 5 7 30.36 1028 10 16 0.00 0.00
1:53 am 01:53 Clear 20 -6.7 13 -10.6 74 74 SSW 12 19 30.37 1028 10 16 0.00 0.00
2:53 am 02:53 Clear 24 -4.4 15 -9.4 68 68 WSW 21 33 30.37 1029 10 16 0.00 0.00
3:53 am 03:53 Clear 22 -5.6 14 -10 71 71 SW 21 33 30.39 1029 10 16 0.00 0.00
4:53 am 04:53 Clear 23 -5 14 -10 68 68 SW 15 24 30.40 1030 10 16 0.00 0.00
5:53 am 05:53 Clear 21 -6.1 13 -10.6 71 71 SW 15 24 30.42 1030 10 16 0.00 0.00
6:53 am 06:53 Clear 21 -6.1 12 -11.1 68 68 SW 15 24 30.41 1030 10 16 0.00 0.00
7:53 am 07:53 Clear 21 -6.1 12 -11.1 68 68 WSW 12 19 30.39 1029 10 16 0.00 0.00
8:53 am 08:53 Sunny 23 -5 13 -10.6 65 65 SW 16 26 30.37 1029 10 16 0.00 0.00
9:53 am 09:53 Sunny 23 -5 13 -10.6 65 65 WSW 7 11 30.37 1028 10 16 0.00 0.00
10:53 am 10:53 Sunny 27 -2.8 14 -10 58 58 SW 10 17 30.35 1028 10 16 0.00 0.00
11:53 am 11:53 Sunny 31 -0.6 15 -9.4 52 52 WSW 12 19 30.30 1026 10 16 0.00 0.00
12:53 pm 12:53 Sunny 31 -0.6 15 -9.4 52 52 W 5 7 30.25 1025 10 16 0.00 0.00
1:53 pm 13:53 Sunny 32 0 16 -8.9 52 52 Calm 30.20 1023 10 16 0.00 0.00
2:53 pm 14:53 Sunny 33 0.6 18 -7.8 54 54 Calm 30.14 1021 10 16 0.00 0.00
3:53 pm 15:53 Sunny 31 -0.6 19 -7.2 61 61 Calm 30.11 1020 10 16 0.00 0.00
4:53 pm 16:53 Clear 29 -1.7 18 -7.8 63 63 ENE 6 9 30.06 1018 10 16 0.00 0.00
5:53 pm 17:53 Cloudy 27 -2.8 19 -7.2 72 72 ENE 6 9 30.03 1017 10 16 0.00 0.00
6:53 pm 18:53 Cloudy 27 -2.8 20 -6.7 75 75 Calm 29.98 1015 10 16 0.00 0.00
7:53 pm 19:53 Partly Cloudy 30 -1.1 20 -6.7 66 66 WSW 12 19 29.93 1014 10 16 0.00 0.00
8:53 pm 20:53 Mostly Cloudy 31 -0.6 21 -6.1 67 67 SW 20 31 29.89 1012 10 16 0.00 0.00
9:53 pm 21:53 Cloudy 33 0.6 21 -6.1 61 61 WSW 14 22 29.85 1011 10 16 0.00 0.00
10:53 pm 22:53 Cloudy 35 1.7 23 -5 61 61 SW 14 22 29.81 1010 10 16 0.00 0.00
11:53 pm 23:53 Cloudy 36 2.2 23 -5 59 59 WSW 13 20 29.77 1008 10 16 0.00 0.00

Powered by AerisWeather